Temperature
19 19 19 19 19 19 19 19 19 19 20 20 20 20 20 20 20 20 19 19 19 19 19 19 19 19 19 19 19 19 19 19 18 18 18 18 18 18 18 18 18 18 18
19 19 19 19 19 19 19 19 19 19 19 19 19 19 19 19 19 19 19 19 19 19 19 19 19 19 19 19 18 18 18 18 18 18 18 18 18 18 18 18 18 18 18
19 19 19 18 18 18 19 19 19 19 19 19 19 19 19 19 19 19 19 19 19 19 19 19 19 19 19 18 18 18 18 18 18 18 18 18 18 18 18 18 18 18 18
18 18 18 18 18 18 18 18 18 18 18 18 18 19 19 19 19 19 19 19 19 19 19 19 19 19 18 18 18 18 18 18 18 18 18 18 18 18 18 18 18 18 18
18 18 18 18 18 18 18 18 18 18 18 18 18 18 18 18 18 18 18 18 18 18 18 19 18 18 18 18 18 18 18 18 18 18 18 18 18 18 18 18 18 18 18
18 18 18 18 17 17 17 17 17 17 17 17 17 18 18 18 18 18 18 18 18 18 18 18 18 18 18 18 18 18 18 18 18 18 18 18 18 18 18 18 18 18 18
18 18 18 18 17 17 17 17 17 17 17 17 17 17 17 17 17 17 17 17 18 18 18 18 18 18 18 18 18 18 18 18 18 18 18 18 18 18 18 18 18 18 18
18 18 18 18 17 17 17 17 17 17 17 17 17 17 17 17 17 17 17 17 17 17 18 18 18 18 18 18 18 18 18 17 18 18 18 18 18 18 18 18 18 18 18
18 18 18 17 17 17 17 17 16 16 16 16 16 17 17 17 17 17 17 17 17 17 17 17 18 18 18 18 18 18 17 17 18 18 18 18 18 18 18 18 18 18 18
18 18 17 17 17 16 16 16 16 16 16 16 16 16 16 16 17 17 17 17 17 17 17 17 17 17 17 17 17 17 17 17 17 18 18 18 18 18 18 18 18 18 18
18 17 17 17 16 16 16 15 15 15 15 15 16 16 16 16 16 16 17 17 17 17 17 17 17 17 17 17 17 17 17 17 17 17 18 18 18 18 18 18 18 18 18
17 17 17 16 16 15 15 15 15 15 15 15 15 15 15 15 16 16 16 16 17 17 17 17 17 17 17 17 17 17 17 17 17 17 17 17 18 18 18 18 17 18 18
17 17 16 16 15 15 15 15 15 15 15 15 15 15 15 15 15 16 16 16 16 16 17 17 17 17 17 17 17 17 17 17 17 17 17 17 17 17 18 18 17 18 18
17 17 16 15 15 15 14 14 14 14 14 14 15 15 15 15 15 15 15 16 16 16 16 16 16 16 17 17 17 17 17 17 17 17 17 17 17 17 17 17 18 17 18
17 16 16 15 15 14 14 14 14 14 14 14 14 14 15 15 15 15 15 15 15 16 16 16 16 16 16 16 17 17 17 17 17 17 17 17 17 17 17 17 17 17 17
17 16 15 15 14 14 14 14 14 14 14 14 14 14 14 14 15 15 15 15 15 15 16 16 16 16 16 16 16 17 17 17 17 17 17 17 17 17 17 17 17 17 17
17 16 15 15 14 14 14 14 14 14 14 14 14 14 14 14 14 14 14 15 15 15 15 15 16 16 16 16 16 16 17 17 17 17 17 17 17 17 17 17 17 17 17
16 16 15 15 14 14 14 13 13 13 13 13 13 13 13 13 14 14 14 14 14 15 15 15 15 16 16 16 16 16 16 17 17 17 17 17 18 18 17 17 17 17 17
16 16 15 14 14 14 13 13 13 13 13 13 13 13 13 13 13 13 14 14 14 14 15 15 15 15 15 16 16 16 16 17 17 17 17 17 17 17 17 17 17 17 17
16 15 15 14 14 13 13 13 13 13 13 13 13 13 13 13 13 13 13 14 14 14 14 14 15 15 15 15 16 16 16 16 17 17 17 17 17 17 17 17 17 17 17
16 15 15 14 14 13 13 13 13 13 13 13 13 13 13 13 13 13 13 13 13 14 14 14 14 14 15 15 15 16 16 16 16 17 17 17 17 17 17 17 17 17 17
16 15 14 14 13 13 13 12 12 12 12 12 12 12 12 12 12 12 13 13 13 13 13 14 14 14 14 14 15 15 15 16 16 16 17 17 17 17 17 17 17 17 17
16 15 14 14 13 13 13 12 12 12 12 12 12 12 12 12 12 12 12 12 13 13 13 13 13 13 14 14 14 14 15 15 15 16 16 16 17 17 17 17 17 17 17
16 15 14 14 13 13 13 12 12 12 12 12 12 12 12 12 12 12 12 12 12 12 12 13 13 13 13 13 14 14 14 14 15 15 16 16 16 16 16 17 17 17 17
16 15 14 14 13 13 13 12 12 12 12 12 12 12 12 12 12 12 12 12 12 12 12 12 12 12 13 13 13 13 14 14 14 14 15 15 16 16 16 16 16 17 17
16 15 14 14 14 13 13 13 12 12 12 12 12 12 12 12 12 12 12 12 12 12 12 12 12 12 12 12 13 13 13 13 13 14 14 14 15 15 16 16 16 16 17
Wind_Speed
2 4 8 8 8 7 6 6 6 6 5 5 5 5 5 6 6 5 5 4 4 4 4 4 4 4 5 5 5 5 5 5 5 5 5 5 5 5 5 6 7 6 8
3 5 7 7 7 6 5 5 5 4 4 4 4 4 4 4 4 4 4 4 4 3 3 3 3 3 3 3 3 4 4 4 4 4 4 4 4 4 5 6 6 6 8
4 5 6 6 6 5 4 4 3 3 3 3 3 4 4 4 4 4 4 4 4 4 4 3 2 2 2 2 2 2 2 2 2 2 3 2 2 3 4 6 6 7 7
4 4 3 4 3 3 3 3 3 4 4 4 5 5 5 5 5 5 6 5 5 5 5 4 3 3 2 2 1 1 1 2 1 2 2 1 2 3 5 6 6 7 7
3 3 1 2 1 2 2 3 4 5 5 5 6 6 6 6 7 7 7 7 7 7 6 6 5 4 3 3 2 1 1 1 1 2 1 1 2 4 5 6 6 7 7
3 2 1 1 1 2 3 4 5 6 6 6 7 7 7 7 8 9 9 9 8 8 8 7 7 6 5 4 3 2 2 2 1 1 0 1 3 5 6 6 7 8 8
3 3 3 3 3 3 4 5 6 6 7 7 8 8 8 8 8 9 9 10 10 10 9 8 8 7 7 6 5 4 3 3 1 1 1 2 4 6 6 6 6 7 8
3 3 4 4 4 4 5 5 6 7 7 8 8 9 9 9 9 9 9 10 10 11 10 9 9 8 8 7 6 5 4 3 0 1 1 3 5 6 7 7 7 8 8
3 3 3 5 5 6 6 6 7 7 8 8 9 9 9 9 9 9 9 10 10 11 11 10 10 9 9 8 7 6 5 4 1 2 3 4 6 7 7 7 7 7 8
2 2 3 4 5 6 6 7 8 8 8 9 9 10 10 9 8 9 9 10 10 10 10 10 10 10 10 9 8 7 6 4 2 2 3 5 7 7 8 8 7 7 7
1 2 2 3 4 5 6 6 8 8 8 9 9 9 9 8 7 7 9 10 10 10 10 9 9 9 9 9 8 7 5 2 3 3 5 7 8 8 8 9 8 8 8
0 1 1 2 3 4 5 6 7 7 7 7 7 7 7 6 6 6 8 9 9 8 7 8 8 8 7 5 6 5 3 3 3 4 6 8 9 8 9 9 9 8 8
1 0 1 1 2 3 3 4 4 5 6 6 6 6 5 5 5 5 5 6 6 5 3 4 4 4 3 4 3 3 3 3 4 5 6 9 8 8 9 10 9 9 9
2 1 1 1 2 3 3 3 3 3 4 4 6 6 4 2 3 3 2 3 3 3 2 2 2 3 4 5 4 4 4 3 4 5 7 9 9 8 10 10 10 9 9
3 2 0 1 2 2 3 3 3 3 3 4 5 6 4 2 3 3 2 2 2 2 2 2 2 3 3 3 4 4 4 4 5 5 6 8 9 9 10 11 11 10 10
4 2 0 1 2 2 2 2 2 3 4 4 5 6 5 3 2 3 3 2 2 2 2 2 3 3 3 3 4 4 4 4 4 4 5 6 7 8 10 11 11 11 10
4 2 1 1 2 3 3 3 3 3 3 3 4 6 6 5 3 3 3 3 3 3 2 2 2 2 2 3 4 4 4 4 4 4 4 4 5 7 9 10 11 11 11
3 2 1 1 2 2 3 3 3 3 3 3 5 6 7 6 5 3 3 3 4 3 1 1 1 1 2 2 3 3 3 3 4 4 3 4 4 5 7 9 11 12 12
4 3 1 1 1 2 3 3 3 3 3 4 5 5 6 7 7 3 3 3 4 2 2 1 0 1 1 2 3 3 3 3 3 3 3 3 4 5 5 7 10 13 13
3 3 2 0 1 2 2 3 3 4 4 4 4 5 6 7 7 5 3 4 4 2 2 2 1 1 1 1 2 2 3 4 3 4 4 3 3 4 5 6 7 10 13
3 3 2 1 1 1 2 2 2 3 3 3 4 6 6 6 6 5 4 5 4 3 3 3 1 1 1 0 0 1 2 2 3 4 4 3 3 4 4 6 7 8 9
4 4 3 2 2 1 1 0 1 1 2 2 3 4 7 6 6 5 5 4 4 4 4 4 2 1 1 1 1 1 1 2 1 2 2 3 3 2 3 5 6 8 9
5 6 5 4 3 2 1 1 2 2 3 4 4 4 5 6 5 5 5 4 4 4 3 4 3 2 1 1 1 1 1 1 2 2 1 1 2 2 3 3 5 8 9
7 6 5 4 3 2 0 1 1 1 1 2 3 3 5 5 5 5 5 4 4 4 4 4 3 2 1 1 2 1 0 1 0 1 2 2 2 2 3 3 4 6 9
7 6 5 4 4 3 1 1 1 0 1 2 2 4 4 5 5 5 5 4 4 4 4 4 4 3 2 1 1 1 1 1 1 1 1 2 2 2 3 4 4 4 7
5 5 5 5 5 3 2 1 2 2 1 1 2 3 4 3 4 5 4 4 4 4 4 3 3 3 3 2 1 1 0 0 0 1 1 1 2 3 3 3 4 4 5
Wind_Direction
209 209 186 166 157 150 147 147 150 148 145 143 142 141 140 136 134 134 137 135 132 127 119 113 111 105 101 96 91 89 89 90 97 99 102 103 102 107 117 117 117 116 119
184 184 181 173 167 163 163 165 167 166 166 168 168 168 165 159 157 158 163 165 163 157 150 142 133 124 116 107 94 88 84 83 90 96 103 107 113 121 129 132 130 131 129
148 168 176 183 181 177 182 190 195 198 202 209 209 208 207 199 191 193 194 194 193 188 184 181 177 163 150 135 101 78 74 72 74 95 97 105 129 146 147 148 146 140 136
134 148 172 189 189 193 206 221 237 243 242 242 241 239 237 233 226 220 218 216 214 211 206 204 209 208 201 195 167 61 45 39 38 90 100 148 189 176 167 165 159 150 146
108 116 160 176 204 255 269 276 277 275 272 268 264 260 257 254 250 243 234 231 228 226 221 219 222 228 231 231 239 281 328 357 18 76 102 154 210 206 189 180 169 162 158
72 65 20 19 340 312 306 304 301 295 293 288 283 277 273 268 262 257 250 243 239 234 230 228 229 233 236 242 250 263 295 324 35 97 148 202 219 220 202 190 183 176 171
68 49 23 13 356 339 331 329 323 315 309 304 299 294 289 284 277 270 265 256 248 243 237 233 233 238 240 243 250 260 277 302 143 151 214 227 228 226 203 194 191 186 177
69 41 28 15 6 354 345 337 329 324 317 312 308 304 300 295 288 281 275 269 259 251 246 240 236 239 244 246 250 257 268 285 250 193 248 238 237 227 204 197 194 191 185
64 45 24 10 2 354 345 338 335 328 324 319 314 312 308 302 296 294 289 284 275 261 251 245 241 242 244 247 250 255 265 272 255 228 255 242 240 230 208 200 198 191 187
52 30 7 358 354 348 341 336 335 328 325 323 322 320 315 310 309 308 302 293 284 273 262 252 249 247 245 246 249 253 263 274 246 233 256 254 248 235 212 202 199 192 189
36 11 356 347 347 344 333 339 342 336 333 331 327 326 326 321 312 304 299 294 287 279 270 256 250 252 251 251 252 253 262 248 235 245 253 254 253 240 220 205 199 196 195
248 321 329 329 343 346 340 343 342 339 335 332 325 323 323 317 309 305 303 301 300 295 285 268 252 254 256 255 259 261 253 241 234 247 254 256 252 239 218 206 200 198 196
191 99 25 355 355 357 342 336 337 335 337 338 335 333 329 328 323 321 312 312 313 313 305 292 270 243 221 219 228 230 233 234 240 250 258 259 252 235 217 205 201 198 198
152 165 6 1 356 352 347 335 333 338 340 340 340 346 345 336 327 318 310 312 311 301 279 261 250 231 215 213 214 214 224 227 242 248 254 258 253 236 221 211 205 201 199
172 198 236 340 356 349 354 341 355 344 341 339 345 354 356 340 325 316 309 307 296 288 265 251 238 221 214 210 213 211 217 228 241 245 247 257 255 243 227 217 211 205 203
190 200 246 315 348 3 4 354 345 349 355 357 358 358 2 354 332 323 321 316 307 295 263 237 228 219 221 207 213 218 219 221 230 239 242 251 251 246 233 222 215 207 205
190 191 240 216 21 20 12 0 2 360 11 6 358 3 8 6 353 338 334 332 316 312 290 263 237 212 219 211 211 215 215 223 223 233 236 235 241 245 235 225 216 209 208
175 168 272 72 56 24 12 360 1 12 20 12 6 9 10 10 6 355 348 335 326 331 325 287 244 215 219 219 215 222 220 224 231 235 234 233 231 237 232 226 218 211 209
177 172 153 69 40 14 8 5 10 19 21 14 13 11 9 12 14 12 1 341 344 349 349 321 265 212 219 232 231 225 225 227 233 245 239 236 230 228 223 225 222 215 210
164 158 149 100 3 0 5 11 10 16 10 13 13 9 11 13 15 18 13 0 1 13 4 351 323 292 234 243 255 243 230 227 223 233 236 231 224 227 221 217 218 218 215
160 165 182 208 319 4 15 12 6 352 343 353 358 8 13 16 17 23 17 11 13 20 6 356 352 11 342 345 41 333 306 246 228 233 233 228 227 223 212 214 214 213 215
185 192 208 230 268 295 285 267 254 294 312 313 328 359 14 15 14 22 22 15 13 19 20 16 20 34 6 23 85 85 348 343 308 255 239 230 233 221 219 222 215 213 212
200 205 210 227 245 266 302 42 33 22 6 0 352 349 347 1 12 18 16 15 14 22 16 9 17 47 23 355 23 116 136 235 309 332 285 260 248 227 230 221 221 218 216
211 212 217 227 241 252 238 89 89 71 349 308 309 317 333 358 7 14 14 15 17 20 17 4 25 23 63 28 354 4 156 187 155 336 338 339 291 251 244 240 235 224 221
206 208 217 227 245 253 238 172 130 164 260 296 316 335 347 348 356 6 12 16 19 19 17 18 21 29 40 63 30 358 20 26 68 154 310 332 332 287 259 247 241 232 224
208 213 217 225 244 249 241 222 202 219 255 319 336 343 341 336 340 355 6 17 19 18 16 15 23 32 30 40 34 32 64 90 250 169 226 284 294 288 280 265 248 239 232
Height
1522 1523 1524 1526 1527 1528 1529 1529 1530 1530 1531 1531 1531 1531 1531 1531 1531 1531 1531 1531 1531 1531 1531 1531 1531 1530 1530 1530 1530 1530 1530 1530 1530 1530 1530 1530 1530 1531 1531 1531 1531 1532 1532
1522 1523 1525 1526 1527 1528 1529 1529 1530 1530 1530 1530 1531 1531 1531 1531 1530 1530 1530 1530 1530 1530 1530 1530 1530 1530 1530 1530 1530 1530 1530 1530 1530 1530 1530 1531 1531 1531 1531 1532 1532 1533 1533
1523 1524 1525 1526 1527 1528 1529 1529 1530 1530 1530 1530 1530 1530 1530 1530 1530 1530 1530 1530 1530 1530 1530 1530 1530 1530 1530 1530 1530 1530 1530 1530 1530 1531 1531 1531 1531 1531 1532 1532 1532 1533 1534
1524 1525 1526 1527 1528 1528 1528 1529 1529 1529 1529 1529 1529 1529 1529 1529 1528 1528 1528 1528 1528 1528 1529 1529 1529 1529 1529 1529 1530 1530 1530 1530 1530 1530 1531 1531 1531 1531 1532 1532 1533 1533 1534
1525 1526 1527 1527 1527 1527 1527 1527 1527 1528 1528 1528 1528 1527 1527 1527 1527 1527 1527 1527 1527 1527 1527 1528 1528 1528 1528 1529 1529 1529 1529 1530 1530 1530 1530 1531 1531 1531 1531 1532 1533 1533 1534
1526 1526 1527 1527 1527 1526 1526 1526 1526 1526 1526 1526 1525 1525 1525 1525 1525 1525 1525 1525 1525 1525 1526 1526 1526 1527 1527 1528 1528 1528 1529 1529 1529 1530 1530 1530 1530 1531 1531 1532 1532 1533 1534
1526 1526 1526 1526 1526 1526 1525 1525 1524 1524 1523 1523 1523 1523 1523 1523 1523 1523 1523 1523 1523 1523 1524 1524 1525 1525 1526 1526 1527 1527 1528 1528 1528 1529 1529 1530 1530 1530 1530 1531 1532 1533 1534
1526 1526 1526 1526 1525 1525 1524 1523 1523 1522 1521 1521 1520 1520 1520 1520 1520 1520 1520 1521 1521 1521 1522 1522 1523 1524 1524 1525 1525 1526 1526 1527 1527 1528 1529 1529 1529 1530 1530 1530 1531 1532 1533
1526 1526 1526 1525 1525 1524 1523 1522 1521 1520 1519 1518 1518 1517 1517 1517 1517 1517 1517 1518 1518 1519 1519 1520 1521 1522 1523 1523 1524 1524 1525 1525 1526 1527 1528 1528 1529 1529 1529 1530 1531 1532 1533
1526 1526 1525 1524 1523 1522 1521 1520 1519 1518 1517 1516 1515 1514 1514 1514 1514 1514 1514 1515 1515 1516 1517 1517 1519 1520 1521 1521 1522 1523 1523 1524 1525 1526 1526 1527 1528 1528 1529 1529 1530 1531 1532
1526 1525 1524 1524 1522 1521 1520 1518 1517 1516 1515 1514 1513 1512 1511 1511 1511 1511 1511 1512 1513 1513 1514 1515 1516 1517 1518 1519 1520 1521 1522 1522 1523 1524 1525 1526 1527 1527 1528 1528 1529 1530 1532
1525 1525 1524 1523 1521 1520 1518 1517 1515 1514 1513 1512 1511 1511 1510 1509 1509 1508 1508 1509 1510 1510 1511 1512 1513 1515 1516 1517 1518 1519 1520 1521 1522 1523 1524 1525 1526 1526 1527 1528 1529 1530 1531
1525 1524 1523 1522 1520 1519 1517 1516 1514 1513 1512 1511 1510 1509 1508 1508 1507 1506 1506 1506 1507 1507 1508 1509 1510 1512 1513 1514 1516 1517 1518 1519 1520 1521 1522 1523 1524 1525 1526 1527 1528 1529 1530
1524 1524 1523 1521 1520 1518 1516 1515 1513 1512 1511 1509 1509 1508 1507 1506 1505 1504 1504 1504 1504 1505 1506 1507 1508 1509 1511 1512 1514 1515 1516 1517 1518 1519 1520 1522 1523 1524 1525 1526 1527 1528 1530
1524 1523 1522 1521 1519 1517 1516 1514 1512 1511 1510 1508 1507 1506 1505 1504 1504 1503 1502 1502 1502 1503 1503 1504 1506 1507 1508 1509 1511 1512 1514 1515 1516 1517 1519 1520 1521 1523 1524 1525 1526 1527 1529
1523 1523 1522 1520 1519 1517 1515 1513 1512 1510 1509 1508 1506 1505 1504 1503 1502 1501 1501 1500 1500 1500 1501 1502 1503 1504 1505 1507 1508 1509 1511 1513 1514 1515 1517 1518 1520 1521 1522 1524 1525 1526 1527
1523 1522 1521 1520 1518 1517 1515 1513 1511 1510 1508 1507 1506 1504 1503 1502 1501 1500 1499 1498 1498 1499 1499 1500 1501 1501 1502 1504 1505 1506 1508 1510 1511 1513 1514 1516 1518 1519 1521 1522 1523 1525 1526
1522 1521 1520 1519 1518 1516 1514 1512 1511 1509 1508 1507 1505 1504 1502 1501 1500 1499 1498 1497 1497 1497 1497 1498 1498 1499 1500 1501 1502 1504 1505 1507 1509 1510 1512 1514 1515 1517 1519 1520 1522 1524 1525
1521 1521 1520 1519 1517 1516 1514 1512 1510 1509 1508 1507 1505 1504 1502 1500 1499 1498 1497 1496 1495 1495 1495 1496 1496 1497 1498 1499 1500 1501 1502 1504 1505 1507 1509 1511 1512 1515 1517 1518 1520 1522 1524
1521 1520 1519 1518 1517 1515 1513 1512 1510 1509 1508 1507 1505 1504 1502 1500 1499 1497 1496 1495 1495 1494 1494 1494 1494 1495 1496 1496 1497 1498 1499 1501 1502 1504 1506 1508 1510 1512 1514 1516 1518 1520 1522
1520 1519 1519 1518 1516 1514 1513 1511 1510 1509 1508 1507 1506 1504 1503 1501 1499 1497 1496 1495 1494 1493 1493 1493 1493 1493 1494 1495 1495 1496 1497 1498 1499 1501 1503 1504 1506 1509 1511 1513 1515 1518 1520
1519 1519 1518 1517 1516 1514 1513 1511 1510 1509 1508 1507 1506 1505 1503 1501 1499 1498 1496 1495 1494 1493 1492 1492 1492 1492 1492 1493 1494 1495 1495 1497 1497 1498 1499 1501 1503 1505 1507 1510 1512 1515 1517
1518 1518 1517 1517 1515 1514 1513 1511 1510 1509 1508 1507 1506 1505 1503 1502 1500 1498 1496 1495 1494 1493 1492 1491 1491 1491 1491 1492 1493 1494 1494 1494 1495 1496 1497 1498 1500 1502 1504 1506 1509 1511 1514
1517 1517 1517 1516 1515 1514 1513 1512 1511 1510 1508 1507 1506 1505 1503 1502 1500 1499 1497 1496 1494 1493 1492 1492 1491 1491 1491 1491 1492 1492 1494 1494 1494 1494 1496 1496 1498 1499 1501 1503 1505 1507 1510
1515 1516 1516 1515 1515 1514 1513 1512 1511 1509 1508 1507 1506 1505 1504 1502 1501 1499 1498 1496 1495 1494 1493 1492 1491 1491 1490 1490 1491 1491 1492 1492 1493 1494 1494 1495 1496 1497 1498 1500 1501 1503 1506
1514 1515 1515 1514 1514 1514 1513 1512 1510 1509 1508 1507 1506 1505 1504 1502 1501 1500 1499 1497 1496 1494 1493 1492 1491 1490 1490 1490 1490 1490 1491 1491 1491 1492 1493 1493 1493 1495 1496 1497 1498 1500 1502